Volver al catálogo

STARLINK-36912

ActivoComunicacionesSSO
NORAD 67961·PAYLOAD·🇺🇸 United States

Lanzado Feb 25, 2026 desde Vandenberg Space Force Base

Loading…

Próximos Pases (próximas 24 horas)

TLE

ActualizadoSource: CelesTrak SupGP

Época: Sep 14, 2026, 23:04 UTC

1 67961C 26038A   26257.96159722  .00025160  00000+0  78091-3 0  2579
2 67961  97.2841 266.3134 0001532  74.6942 164.0758 15.33430877    13

Sigue STARLINK-36912 en tiempo real con AllMySat

Download on the App Store